This is the latest recevied weather packets stored in our database for station/object N4CRH-13. If no packets are shown the sender has not sent any weather packets the latest 10 day(s).
| Time | Temp. | Humidity | Pressure | Rain* | Wind** | Luminosity | Snow |
|---|---|---|---|---|---|---|---|
| 1778226406 | 7.22° C | 67% | 1295 hPa | 0 mm | - | 0 W/m² | - |
| 1778226102 | 7.22° C | 67% | 1295.1 hPa | 0 mm | - | 0 W/m² | - |
| 1778225799 | 6.11° C | 70% | 1295.1 hPa | 0 mm | - | 0 W/m² | - |
| 1778225497 | 6.11° C | 68% | 1295.1 hPa | 0 mm | - | 0 W/m² | - |
| 1778225192 | 7.22° C | 66% | 1295.4 hPa | 0 mm | - | 0 W/m² | - |
| 1778224890 | 6.11° C | 68% | 1295.2 hPa | 0 mm | - | 0 W/m² | - |
| 1778224587 | 6.67° C | 68% | 1295.2 hPa | 0 mm | - | 0 W/m² | - |
| 1778224286 | 8.33° C | 61% | 1295.1 hPa | 0 mm | - | 0 W/m² | - |
| 1778223983 | 7.78° C | 63% | 1295 hPa | 0 mm | - | 0 W/m² | - |
| 1778223682 | 6.67° C | 66% | 1295.1 hPa | 0 mm | - | 0 W/m² | - |
| 1778223378 | 7.78° C | 63% | 1295 hPa | 0 mm | - | 0 W/m² | - |
| 1778223076 | 8.33° C | 58% | 1294.5 hPa | 0 mm | - | 0 W/m² | - |
| 1778222773 | 6.67° C | 62% | 1294.7 hPa | 0 mm | - | 0 W/m² | - |
| 1778222471 | 4.44° C | 75% | 1294.7 hPa | 0 mm | - | 0 W/m² | - |
| 1778222168 | 5° C | 72% | 1295.1 hPa | 0 mm | - | 0 W/m² | - |
| 1778221867 | 5° C | 73% | 1294.6 hPa | 0 mm | - | 0 W/m² | - |
| 1778221564 | 5.56° C | 71% | 1294.7 hPa | 0 mm | - | 0 W/m² | - |
| 1778221260 | 6.11° C | 67% | 1294.7 hPa | 0 mm | - | 0 W/m² | - |
| 1778220958 | 5° C | 70% | 1294.5 hPa | 0 mm | - | 0 W/m² | - |
| 1778220655 | 5° C | 72% | 1294.5 hPa | 0 mm | - | 0 W/m² | - |
| 1778220352 | 5.56° C | 71% | 1294.5 hPa | 0 mm | - | 0 W/m² | - |
| 1778220049 | 5.56° C | 69% | 1294.6 hPa | 0 mm | - | 0 W/m² | - |
| 1778219744 | 5.56° C | 68% | 1294.8 hPa | 0 mm | - | 0 W/m² | - |
| 1778219442 | 6.11° C | 69% | 1294.6 hPa | 0 mm | - | 0 W/m² | - |
| 1778219138 | 6.67° C | 62% | 1294.6 hPa | 0 mm | - | 0 W/m² | - |
* Rain latest hour (hover to see other rain measurements)
** Current wind speed in m/s (hover to see current wind gust speed)